DELTA 1 DEB, 4841

Orbit data source: Space-Track

DELTA 1 DEB, 4841 is space debris originally from a launch on Thu, 04 Jul 1968 UTC launched from the Air Force Western Test Range (AFWTR). Debris objects in space refer to the collection of defunct objects orbiting the Earth. Examples of debris include non-operational satellites, rocket bodies, and fragments generated from explosions, collisions, or faulty payload assembly.

Loading next visibility...
Identifier
4841, 1968-055D
Orbit
Active
Country
Flag of USUS
Related business
Manufacturer
Unknown
Mission
Spacecraft
Bus & Motor
Unknown
Mass
Unknown
Launch date (UTC)
1968-07-04 (58 years ago)
Launch vehicle
Unknown
Launch site
Air Force Western Test Range (AFWTR)
Object type
Payload
Rocket body
Debris
Shape & HBR
Unknown shape, 0.1 m
Radar Cross Section
Medium (>0.1 m² and <1 m²)

Expand to show TLE details & history
Last TLE update: 2 weeks ago

TLE from 2 weeks ago
0 DELTA 1 DEB
1 04841U 68055D   26243.48197500  .00000107  00000-0  20284-3 0  9999
2 04841 120.7191 356.8206 2699373 248.2096 150.3623  9.29294698142432
Epoch: 2026-08-31T11:34Z
TLE epoch observation values (Epoch: 2026-08-31T11:34:02.640Z)
Latitude
41.47767°
Longitude
172.07057°
Altitude
5,548.711 km
Speed
5.018 km/s
True Right ascension
21h 40m 58s
True Declination
41° 22' 32"
Sunlit
Object was in daylight at epoch
Visualization orbit readout
Latitude
Unknown
Longitude
Unknown
Altitude
Unknown
Speed
Unknown
Apparent Right ascension
Unknown
Apparent Declination
Unknown
Sunlit
N/A
Visualization observer readout
Local Sidereal Time
15:06:26
Azimuth
Unknown
Elevation
Unknown
Doppler factor
Unknown
Orbital elements
Apogee altitude
5,757.333 km
Perigee altitude
598.313 km
Semi-major axis
9,555.96 km
Eccentricity
0.26994
Inclination
120.7191°
RAAN
356.8206°
Arg. of periapsis
248.2096°
True anomaly
162.09388°
Mean anomaly
150.3623°
Eccentric anomaly
156.52361°
Mean motion
2.32344 °/min
Orbital period
154.94 mins
BSTAR
0.00020284
Loading maneuver chart data...
Computing Atmospheric mass density...
Loading historical data...
Loading historical data...
Loading historical data...
Loading historical data...
Loading historical data...
Loading historical data...
Loading historical data...

Documentation

Showing up to 5 results
|